Time,TemperatureF,DewpointF,PressureIn,WindDirection,WindDirectionDegrees,WindSpeedMPH,WindSpeedGustMPH,Humidity,HourlyPrecipIn,Conditions,Clouds,dailyrainin,SoftwareType,DateUTC
2013-04-23 00:03:00,33.0,30.0,30.73,East,89,3.0,6.0,87,0.00,,,0.00,,2013-04-23 04:03:00,
2013-04-23 00:12:00,33.0,30.0,30.73,East,89,3.0,6.0,87,0.00,,,0.00,,2013-04-23 04:12:00,
2013-04-23 00:23:00,33.0,30.0,30.72,East,91,2.0,7.0,87,0.00,,,0.00,,2013-04-23 04:23:00,
2013-04-23 00:33:00,33.0,29.0,30.72,ESE,104,5.0,8.0,85,0.00,,,0.00,,2013-04-23 04:33:00,
2013-04-23 00:43:00,33.0,29.0,30.72,ESE,104,5.0,8.0,85,0.00,,,0.00,,2013-04-23 04:43:00,
2013-04-23 00:53:00,33.0,29.0,30.71,East,98,6.0,9.0,84,0.00,,,0.00,,2013-04-23 04:53:00,
2013-04-23 01:02:00,33.0,29.0,30.71,SE,124,6.0,11.0,85,0.00,,,0.00,,2013-04-23 05:02:00,
2013-04-23 01:12:00,33.0,29.0,30.71,SE,124,6.0,11.0,85,0.00,,,0.00,,2013-04-23 05:12:00,
2013-04-23 01:22:00,33.0,30.0,30.71,ESE,121,5.0,10.0,87,0.00,,,0.00,,2013-04-23 05:22:00,
2013-04-23 01:32:00,33.0,30.0,30.71,East,93,7.0,10.0,88,0.00,,,0.00,,2013-04-23 05:32:00,
2013-04-23 01:42:00,33.0,30.0,30.71,East,93,7.0,10.0,88,0.00,,,0.00,,2013-04-23 05:42:00,
2013-04-23 01:52:00,33.0,30.0,30.70,ESE,114,5.0,10.0,89,0.00,,,0.00,,2013-04-23 05:52:00,
2013-04-23 02:02:00,33.0,31.0,30.70,East,96,6.0,10.0,91,0.00,,,0.00,,2013-04-23 06:02:00,
2013-04-23 02:12:00,33.0,31.0,30.70,East,96,6.0,10.0,91,0.00,,,0.00,,2013-04-23 06:12:00,
2013-04-23 02:22:00,33.0,31.0,30.69,ESE,103,5.0,10.0,91,0.00,,,0.00,,2013-04-23 06:22:00,
2013-04-23 02:33:00,32.0,30.0,30.68,East,79,4.0,10.0,91,0.00,,,0.00,,2013-04-23 06:33:00,
2013-04-23 02:42:00,32.0,30.0,30.68,East,79,4.0,10.0,91,0.00,,,0.00,,2013-04-23 06:42:00,
2013-04-23 02:52:00,32.0,30.0,30.68,East,91,5.0,9.0,92,0.00,,,0.00,,2013-04-23 06:52:00,
2013-04-23 03:02:00,32.0,30.0,30.68,East,91,6.0,10.0,92,0.00,,,0.00,,2013-04-23 07:02:00,
2013-04-23 03:11:00,32.0,30.0,30.68,East,91,6.0,10.0,92,0.00,,,0.00,,2013-04-23 07:11:00,
2013-04-23 03:22:00,32.0,30.0,30.67,East,83,6.0,11.0,93,0.00,,,0.00,,2013-04-23 07:22:00,
2013-04-23 03:32:00,32.0,30.0,30.67,East,100,7.0,10.0,92,0.00,,,0.00,,2013-04-23 07:32:00,
2013-04-23 03:42:00,32.0,30.0,30.67,East,100,7.0,10.0,92,0.00,,,0.00,,2013-04-23 07:42:00,
2013-04-23 03:52:00,32.0,30.0,30.67,East,101,7.0,14.0,92,0.00,,,0.00,,2013-04-23 07:52:00,
2013-04-23 04:02:00,32.0,30.0,30.66,ESE,105,8.0,13.0,92,0.00,,,0.00,,2013-04-23 08:02:00,
2013-04-23 04:11:00,32.0,30.0,30.66,ESE,105,8.0,13.0,92,0.00,,,0.00,,2013-04-23 08:11:00,
2013-04-23 04:21:00,32.0,30.0,30.66,ESE,112,6.0,14.0,92,0.00,,,0.00,,2013-04-23 08:21:00,
2013-04-23 04:32:00,31.0,29.0,30.65,East,90,7.0,13.0,93,0.00,,,0.00,,2013-04-23 08:32:00,
2013-04-23 04:42:00,31.0,29.0,30.65,East,90,7.0,13.0,93,0.00,,,0.00,,2013-04-23 08:42:00,
2013-04-23 04:52:00,31.0,29.0,30.65,SE,138,5.0,14.0,93,0.00,,,0.00,,2013-04-23 08:52:00,
2013-04-23 05:02:00,31.0,29.0,30.65,East,95,5.0,11.0,94,0.00,,,0.00,,2013-04-23 09:02:00,
2013-04-23 05:11:00,31.0,29.0,30.65,East,95,5.0,11.0,94,0.00,,,0.00,,2013-04-23 09:11:00,
2013-04-23 05:21:00,31.0,29.0,30.64,ESE,109,5.0,11.0,94,0.00,,,0.00,,2013-04-23 09:21:00,
2013-04-23 05:33:00,31.0,29.0,30.63,East,83,5.0,11.0,94,0.00,,,0.00,,2013-04-23 09:33:00,
2013-04-23 05:43:00,31.0,29.0,30.63,East,83,5.0,11.0,94,0.00,,,0.00,,2013-04-23 09:43:00,
2013-04-23 05:53:00,31.0,29.0,30.63,East,83,7.0,13.0,94,0.00,,,0.00,,2013-04-23 09:53:00,
2013-04-23 06:03:00,31.0,30.0,30.64,ENE,73,5.0,11.0,95,0.00,,,0.00,,2013-04-23 10:03:00,
2013-04-23 06:13:00,31.0,30.0,30.64,ENE,73,5.0,11.0,95,0.00,,,0.00,,2013-04-23 10:13:00,
2013-04-23 06:23:00,31.0,29.0,30.64,East,98,5.0,11.0,94,0.00,,,0.00,,2013-04-23 10:23:00,
2013-04-23 06:33:00,30.0,28.0,30.64,East,89,6.0,13.0,94,0.00,,,0.00,,2013-04-23 10:33:00,
2013-04-23 06:42:00,30.0,28.0,30.64,East,89,6.0,13.0,94,0.00,,,0.00,,2013-04-23 10:42:00,
2013-04-23 06:52:00,30.0,28.0,30.64,ESE,123,6.0,9.0,92,0.00,,,0.00,,2013-04-23 10:52:00,
2013-04-23 07:03:00,31.0,29.0,30.64,East,95,6.0,13.0,92,0.00,,,0.00,,2013-04-23 11:03:00,
2013-04-23 07:12:00,31.0,29.0,30.64,East,95,6.0,13.0,92,0.00,,,0.00,,2013-04-23 11:12:00,
2013-04-23 07:22:00,31.0,29.0,30.65,East,100,6.0,10.0,92,0.00,,,0.00,,2013-04-23 11:22:00,
2013-04-23 07:32:00,31.0,29.0,30.65,ENE,76,3.0,9.0,92,0.00,,,0.00,,2013-04-23 11:32:00,
2013-04-23 07:43:00,31.0,29.0,30.65,ENE,76,3.0,9.0,92,0.00,,,0.00,,2013-04-23 11:43:00,
2013-04-23 07:53:00,31.0,29.0,30.65,East,86,6.0,11.0,91,0.00,,,0.00,,2013-04-23 11:53:00,
2013-04-23 08:02:00,32.0,30.0,30.65,East,91,4.0,10.0,91,0.00,,,0.00,,2013-04-23 12:02:00,
2013-04-23 08:12:00,32.0,30.0,30.65,East,91,4.0,10.0,91,0.00,,,0.00,,2013-04-23 12:12:00,
2013-04-23 08:22:00,33.0,30.0,30.65,SE,129,3.0,9.0,90,0.00,,,0.00,,2013-04-23 12:22:00,
2013-04-23 08:32:00,34.0,31.0,30.64,East,96,6.0,13.0,89,0.00,,,0.00,,2013-04-23 12:32:00,
2013-04-23 08:42:00,34.0,31.0,30.64,East,96,6.0,13.0,89,0.00,,,0.00,,2013-04-23 12:42:00,
2013-04-23 08:52:00,34.0,31.0,30.65,SSE,161,7.0,11.0,87,0.00,,,0.00,,2013-04-23 12:52:00,
2013-04-23 09:01:00,35.0,31.0,30.64,East,93,7.0,11.0,86,0.00,,,0.00,,2013-04-23 13:01:00,
2013-04-23 09:11:00,35.0,31.0,30.64,East,93,7.0,11.0,86,0.00,,,0.00,,2013-04-23 13:11:00,
2013-04-23 09:22:00,35.0,32.0,30.63,East,85,6.0,12.0,87,0.00,,,0.00,,2013-04-23 13:22:00,
2013-04-23 09:32:00,36.0,32.0,30.63,ESE,118,8.0,17.0,85,0.00,,,0.00,,2013-04-23 13:32:00,
2013-04-23 09:42:00,36.0,32.0,30.63,ESE,118,8.0,17.0,85,0.00,,,0.00,,2013-04-23 13:42:00,
2013-04-23 09:52:00,37.0,33.0,30.62,SE,141,5.0,14.0,84,0.00,,,0.00,,2013-04-23 13:52:00,
2013-04-23 10:02:00,38.0,33.0,30.62,East,79,6.0,14.0,82,0.00,,,0.00,,2013-04-23 14:02:00,
2013-04-23 10:11:00,38.0,33.0,30.62,East,79,6.0,14.0,82,0.00,,,0.00,,2013-04-23 14:11:00,
2013-04-23 10:22:00,38.0,33.0,30.61,East,100,9.0,14.0,81,0.00,,,0.00,,2013-04-23 14:22:00,
2013-04-23 10:32:00,38.0,32.0,30.61,ESE,106,9.0,13.0,80,0.00,,,0.00,,2013-04-23 14:32:00,
2013-04-23 10:42:00,38.0,32.0,30.61,ESE,106,9.0,13.0,80,0.00,,,0.00,,2013-04-23 14:42:00,
2013-04-23 10:52:00,39.0,33.0,30.60,ESE,122,9.0,18.0,78,0.00,,,0.00,,2013-04-23 14:52:00,
2013-04-23 11:01:00,39.0,33.0,30.60,ESE,122,9.0,18.0,78,0.00,,,0.00,,2013-04-23 15:01:00,
2013-04-23 11:12:00,40.0,34.0,30.60,SE,133,7.0,12.0,78,0.00,,,0.00,,2013-04-23 15:12:00,
2013-04-23 11:22:00,40.0,34.0,30.60,East,95,8.0,14.0,78,0.00,,,0.00,,2013-04-23 15:22:00,
2013-04-23 11:32:00,40.0,34.0,30.60,ESE,109,8.0,13.0,79,0.00,,,0.00,,2013-04-23 15:32:00,
2013-04-23 11:43:00,40.0,34.0,30.60,ESE,109,8.0,13.0,79,0.00,,,0.00,,2013-04-23 15:43:00,
2013-04-23 11:53:00,40.0,34.0,30.60,ESE,120,9.0,17.0,78,0.00,,,0.00,,2013-04-23 15:53:00,
2013-04-23 12:03:00,40.0,34.0,30.59,SE,139,8.0,15.0,79,0.00,,,0.00,,2013-04-23 16:03:00,
2013-04-23 12:12:00,40.0,34.0,30.59,SE,139,8.0,15.0,79,0.00,,,0.00,,2013-04-23 16:12:00,
2013-04-23 12:23:00,40.0,34.0,30.59,ESE,121,10.0,14.0,78,0.00,,,0.00,,2013-04-23 16:23:00,
2013-04-23 12:34:00,41.0,34.0,30.58,East,100,6.0,14.0,77,0.00,,,0.00,,2013-04-23 16:34:00,
2013-04-23 12:43:00,41.0,34.0,30.58,East,100,6.0,14.0,77,0.00,,,0.00,,2013-04-23 16:43:00,
2013-04-23 12:53:00,42.0,35.0,30.57,SE,131,8.0,14.0,75,0.00,,,0.00,,2013-04-23 16:53:00,
2013-04-23 13:02:00,42.0,35.0,30.57,SE,126,7.0,15.0,77,0.00,,,0.00,,2013-04-23 17:02:00,
2013-04-23 13:12:00,42.0,35.0,30.57,SE,126,7.0,15.0,77,0.00,,,0.00,,2013-04-23 17:12:00,
2013-04-23 13:22:00,41.0,35.0,30.56,SE,139,9.0,14.0,79,0.00,,,0.00,,2013-04-23 17:22:00,
2013-04-23 13:32:00,40.0,35.0,30.55,ESE,123,7.0,13.0,81,0.00,,,0.00,,2013-04-23 17:32:00,
2013-04-23 13:42:00,40.0,35.0,30.55,ESE,123,7.0,13.0,81,0.00,,,0.00,,2013-04-23 17:42:00,
2013-04-23 13:53:00,40.0,35.0,30.55,ESE,112,9.0,14.0,83,0.00,,,0.00,,2013-04-23 17:53:00,
2013-04-23 14:02:00,40.0,35.0,30.54,ESE,115,6.0,16.0,83,0.00,,,0.00,,2013-04-23 18:02:00,
2013-04-23 14:12:00,40.0,35.0,30.54,ESE,115,6.0,16.0,83,0.00,,,0.00,,2013-04-23 18:12:00,
2013-04-23 14:22:00,40.0,35.0,30.54,ESE,120,6.0,13.0,83,0.00,,,0.00,,2013-04-23 18:22:00,
2013-04-23 14:32:00,40.0,35.0,30.53,East,100,7.0,11.0,83,0.00,,,0.00,,2013-04-23 18:32:00,
2013-04-23 14:42:00,40.0,35.0,30.53,East,100,7.0,11.0,83,0.00,,,0.00,,2013-04-23 18:42:00,
2013-04-23 14:52:00,39.0,35.0,30.53,ESE,116,7.0,12.0,85,0.00,,,0.00,,2013-04-23 18:52:00,
2013-04-23 15:02:00,39.0,35.0,30.52,SE,133,8.0,13.0,87,0.00,,,0.00,,2013-04-23 19:02:00,
2013-04-23 15:11:00,39.0,35.0,30.52,SE,133,8.0,13.0,87,0.00,,,0.00,,2013-04-23 19:11:00,
2013-04-23 15:22:00,38.0,36.0,30.52,SE,140,6.0,10.0,91,0.00,,,0.00,,2013-04-23 19:22:00,
2013-04-23 15:32:00,38.0,36.0,30.50,East,97,4.0,11.0,94,0.00,,,0.00,,2013-04-23 19:32:00,
2013-04-23 15:42:00,38.0,36.0,30.50,East,97,4.0,11.0,94,0.00,,,0.00,,2013-04-23 19:42:00,
2013-04-23 15:52:00,38.0,36.0,30.50,ESE,121,5.0,11.0,94,0.00,,,0.00,,2013-04-23 19:52:00,
2013-04-23 16:02:00,38.0,37.0,30.49,ESE,120,5.0,10.0,95,0.00,,,0.00,,2013-04-23 20:02:00,
2013-04-23 16:11:00,38.0,37.0,30.49,ESE,120,5.0,10.0,95,0.00,,,0.00,,2013-04-23 20:11:00,
2013-04-23 16:22:00,38.0,37.0,30.48,East,93,4.0,8.0,96,0.00,,,0.00,,2013-04-23 20:22:00,
2013-04-23 16:32:00,38.0,37.0,30.48,SE,133,2.0,9.0,96,0.00,,,0.00,,2013-04-23 20:32:00,
2013-04-23 16:42:00,38.0,37.0,30.48,SE,133,2.0,9.0,96,0.00,,,0.00,,2013-04-23 20:42:00,
2013-04-23 16:52:00,38.0,37.0,30.47,ESE,107,6.0,11.0,96,0.00,,,0.00,,2013-04-23 20:52:00,
2013-04-23 17:02:00,38.0,37.0,30.47,East,88,6.0,11.0,97,0.00,,,0.00,,2013-04-23 21:02:00,
2013-04-23 17:12:00,38.0,37.0,30.47,East,88,6.0,11.0,97,0.00,,,0.00,,2013-04-23 21:12:00,
2013-04-23 17:22:00,38.0,37.0,30.47,ESE,112,6.0,11.0,97,0.00,,,0.00,,2013-04-23 21:22:00,
2013-04-23 17:33:00,38.0,37.0,30.47,ESE,113,4.0,10.0,97,0.00,,,0.00,,2013-04-23 21:33:00,
2013-04-23 17:43:00,38.0,37.0,30.47,ESE,113,4.0,10.0,97,0.00,,,0.00,,2013-04-23 21:43:00,
2013-04-23 17:53:00,38.0,37.0,30.47,ESE,112,5.0,10.0,97,0.00,,,0.00,,2013-04-23 21:53:00,
2013-04-23 18:03:00,38.0,37.0,30.46,ESE,112,5.0,13.0,97,0.00,,,0.00,,2013-04-23 22:03:00,
2013-04-23 18:12:00,38.0,37.0,30.46,ESE,112,5.0,13.0,97,0.00,,,0.00,,2013-04-23 22:12:00,
2013-04-23 18:23:00,38.0,37.0,30.45,ESE,120,5.0,13.0,97,0.00,,,0.00,,2013-04-23 22:23:00,
2013-04-23 18:33:00,38.0,37.0,30.45,ESE,118,5.0,11.0,97,0.01,,,0.01,,2013-04-23 22:33:00,
2013-04-23 18:42:00,38.0,37.0,30.45,ESE,118,5.0,11.0,97,0.01,,,0.01,,2013-04-23 22:42:00,
2013-04-23 18:52:00,38.0,37.0,30.44,East,90,5.0,10.0,98,0.01,,,0.01,,2013-04-23 22:52:00,
2013-04-23 19:03:00,38.0,37.0,30.43,East,91,3.0,11.0,98,0.01,,,0.01,,2013-04-23 23:03:00,
2013-04-23 19:12:00,38.0,37.0,30.43,East,91,3.0,11.0,98,0.01,,,0.01,,2013-04-23 23:12:00,
2013-04-23 19:22:00,38.0,37.0,30.43,East,83,7.0,12.0,98,0.01,,,0.01,,2013-04-23 23:22:00,
2013-04-23 19:32:00,38.0,37.0,30.42,ESE,113,3.0,11.0,98,0.00,,,0.01,,2013-04-23 23:32:00,
2013-04-23 19:42:00,38.0,37.0,30.42,ESE,113,3.0,11.0,98,0.00,,,0.01,,2013-04-23 23:42:00,
2013-04-23 19:52:00,38.0,37.0,30.41,ESE,102,6.0,10.0,98,0.00,,,0.01,,2013-04-23 23:52:00,
2013-04-23 20:02:00,38.0,37.0,30.41,NE,39,4.0,8.0,98,0.00,,,0.01,,2013-04-24 00:02:00,
2013-04-23 20:11:00,38.0,37.0,30.41,NE,39,4.0,8.0,98,0.00,,,0.01,,2013-04-24 00:11:00,
2013-04-23 20:22:00,38.0,37.0,30.41,ENE,65,2.0,10.0,98,0.00,,,0.01,,2013-04-24 00:22:00,
2013-04-23 20:32:00,38.0,37.0,30.41,ENE,68,3.0,9.0,98,0.00,,,0.01,,2013-04-24 00:32:00,
2013-04-23 20:42:00,38.0,37.0,30.41,ENE,68,3.0,9.0,98,0.00,,,0.01,,2013-04-24 00:42:00,
2013-04-23 20:52:00,38.0,37.0,30.41,ENE,62,4.0,9.0,98,0.00,,,0.01,,2013-04-24 00:52:00,
2013-04-23 21:02:00,38.0,37.0,30.40,ENE,59,5.0,10.0,98,0.00,,,0.01,,2013-04-24 01:02:00,
2013-04-23 21:11:00,38.0,37.0,30.40,ENE,59,5.0,10.0,98,0.00,,,0.01,,2013-04-24 01:11:00,
2013-04-23 21:21:00,38.0,37.0,30.40,ENE,66,4.0,11.0,98,0.00,,,0.01,,2013-04-24 01:21:00,
2013-04-23 21:32:00,39.0,38.0,30.39,ENE,77,5.0,12.0,98,0.00,,,0.01,,2013-04-24 01:32:00,
2013-04-23 21:42:00,39.0,38.0,30.39,ENE,77,5.0,12.0,98,0.00,,,0.01,,2013-04-24 01:42:00,
2013-04-23 21:52:00,39.0,38.0,30.37,East,101,6.0,13.0,98,0.00,,,0.01,,2013-04-24 01:52:00,
2013-04-23 22:02:00,39.0,38.0,30.35,East,100,5.0,14.0,98,0.00,,,0.01,,2013-04-24 02:02:00,
2013-04-23 22:30:00,39.0,38.0,30.34,ESE,105,6.0,15.0,98,0.00,,,0.01,,2013-04-24 02:30:00,
2013-04-23 22:40:00,39.0,38.0,30.34,East,84,5.0,13.0,98,0.00,,,0.01,,2013-04-24 02:40:00,
2013-04-23 22:49:00,39.0,38.0,30.34,East,84,5.0,13.0,98,0.00,,,0.01,,2013-04-24 02:49:00,
2013-04-23 23:10:00,39.0,38.0,30.32,East,93,5.0,12.0,98,0.00,,,0.01,,2013-04-24 03:10:00,
2013-04-23 23:18:00,39.0,38.0,30.32,East,93,5.0,12.0,98,0.00,,,0.01,,2013-04-24 03:18:00,
2013-04-23 23:31:00,39.0,38.0,30.31,NE,55,7.0,12.0,98,0.00,,,0.01,,2013-04-24 03:31:00,
2013-04-23 23:51:00,39.0,38.0,30.30,NE,37,7.0,11.0,98,0.00,,,0.01,,2013-04-24 03:51:00,